Weather in Bolshaya Tura

Russia / Zabaykalsky Krai     51°37′53″N   114°05′13″E
temp.,
°C
wind,
m/s
gust,
m/s
humid.,
%
clouds,
%
prec.,
mm/h
press.,
hPa
HPBL,
m
8 december, wed
wed800:00−14e009538 0.0 10279
03:00−14ne009626 0.0 10269
06:00−16nne019735 0.0 10269
09:00−17nne009841 0.0 10259
12:00−9s11735 0.0 1022111
15:00−6sse1162100 0.0 1018176
18:00−12e1192100 0.0 10209
21:00−13se0196100 0.0 10209
9 december, thu
thu900:00−12wnw1192100 0.0 102020
03:00−13nw2196100 0.0 102220
06:00−15nw119744 0.0 102512
09:00−16nw1198100 0.0 102812
12:00−7nw41164100 0.0 1027716
15:00−7wnw41059100 0.0 1027803
18:00−13wnw2288100 0.0 103127
21:00−14nw1292100 0.0 103223
10 december, fri
fri1000:00−15wnw1196100 0.0 103310
03:00−15nw1195100 0.0 103315
06:00−15wnw1197100 0.0 103313
09:00−14wnw258988 0.0 1034123
12:00−10wnw4106220 0.0 1034755
15:00−10wnw5105790 0.0 10321119
18:00−13wnw411665 0.0 1034553
21:00−14wnw512755 0.0 1034685
11 december, sat
sat1100:00−14w4127783 0.0 1034559
03:00−16w258534 0.0 1034154
06:00−15w3107921 0.0 1032307
09:00−18w23945 0.0 103354
12:00−11wnw5116581 0.0 10311437
15:00−11wnw61162100 0.1 10301781
18:00−13wnw51162100 0.1 10311148
21:00−15nw61166100 0.1 1033981
12 december, sun
sun1200:00−17wnw410726 0.0 1035410
03:00−19wnw37812 0.0 1037226
06:00−21wnw23914 0.0 103859
09:00−22nw11955 0.0 103915
12:00−17wnw24695 0.0 1037366
15:00−14wnw25596 0.0 1033688
18:00−19se119173 0.0 10339
21:00−20ese119688 0.0 103111